Lid_Strength_Index
3 3 2 2 2 2 1 1 1 0 -0 -0 0 0 0 0 -0 4 6 6 6 9 9 11 10 11 9 10 13 11 11 11 12 14 18 17 17 15 18 16 16 15 15 15 15 17 18 10 11 12 10 10 11 11
4 4 3 3 2 2 2 2 1 1 1 0 0 -0 1 1 1 1 6 5 5 9 8 8 8 8 9 9 9 10 11 13 10 15 17 18 20 20 19 19 13 16 13 16 14 14 10 10 10 10 10 9 10 11
4 4 4 4 4 3 3 3 2 2 1 2 1 1 1 1 1 2 6 7 8 10 10 13 13 9 8 8 7 13 13 9 10 10 14 16 19 15 21 18 16 14 12 13 13 11 11 10 10 9 9 9 9 10
5 4 4 4 4 4 4 4 3 3 3 2 2 2 1 1 1 3 7 7 7 10 12 13 9 11 9 8 9 8 9 8 8 11 14 17 20 13 17 14 14 14 13 13 12 11 10 9 10 11 12 12 11 11
5 5 5 5 5 5 4 4 4 4 4 3 3 3 3 3 4 6 7 7 8 9 13 11 11 10 11 11 10 9 10 10 10 12 12 13 14 13 16 15 13 12 12 13 13 9 9 9 11 13 13 13 14 14
6 5 5 5 5 5 5 5 5 5 5 4 3 3 3 4 5 5 9 8 9 8 18 16 11 16 19 16 10 10 10 10 10 10 11 10 10 12 15 19 13 12 13 11 10 11 11 13 14 14 14 15 15 15
6 6 6 5 6 6 5 5 5 5 5 5 4 4 3 3 7 9 13 10 8 10 11 18 13 12 20 14 11 10 10 11 11 11 11 11 11 11 12 14 12 15 13 17 18 16 15 16 15 17 17 18 18 18
7 7 6 6 6 6 6 6 6 6 6 6 5 5 4 5 7 10 11 8 9 12 13 19 15 14 18 14 13 12 12 11 12 16 12 13 14 13 15 12 13 14 18 20 20 19 19 19 19 18 18 18 20 19
7 7 7 7 6 6 6 6 6 6 7 6 5 5 9 13 16 17 10 11 13 14 21 25 21 21 18 21 18 14 12 14 17 18 18 19 18 15 14 15 16 18 18 19 20 19 20 20 19 20 22 21 21 20
7 7 6 6 6 7 7 6 6 7 9 8 11 17 21 19 11 11 17 21 21 23 24 22 28 22 20 22 16 22 14 15 22 21 22 24 22 18 17 20 19 18 19 20 20 18 17 18 19 19 20 19 19 20
7 7 6 6 7 8 7 7 8 10 11 19 23 22 17 12 18 24 24 24 27 25 28 29 27 24 22 23 24 22 24 25 25 23 24 29 23 19 24 25 25 23 23 24 24 23 23 23 21 19 19 20 20 21
7 7 7 7 7 8 7 7 8 15 21 20 20 20 22 24 25 25 29 29 28 24 29 27 26 25 27 24 26 26 27 28 27 31 29 28 21 22 27 27 28 28 27 27 28 27 27 25 26 25 22 22 21 21
7 7 7 6 7 8 8 8 9 12 14 20 24 24 24 26 26 27 28 27 28 30 31 31 28 25 27 24 30 29 30 28 31 31 28 24 23 26 26 32 32 36 34 32 32 32 32 32 32 31 28 28 27 27
7 7 7 7 7 8 8 9 12 15 20 22 24 24 24 28 28 27 27 28 29 30 30 28 31 28 29 28 30 29 31 31 33 32 26 24 23 26 30 33 31 32 33 33 33 35 35 35 33 36 35 33 31 30
7 7 7 7 7 8 10 13 15 21 22 23 24 24 26 28 35 37 38 35 33 32 30 28 29 23 28 26 28 29 28 31 28 24 24 22 26 31 32 33 29 34 34 32 35 34 34 36 36 30 33 37 36 36
7 8 12 8 9 11 13 17 23 24 25 24 27 25 33 28 31 37 38 34 34 29 30 29 32 30 28 28 29 27 27 25 20 23 24 27 27 28 28 30 28 30 31 32 32 33 35 35 34 34 35 32 34 36
8 11 9 9 11 14 15 24 24 25 24 26 25 34 31 30 27 32 35 33 31 31 29 31 28 24 28 31 29 24 24 20 21 22 24 25 24 25 26 29 30 29 30 32 33 32 31 34 36 35 33 32 34 36
11 11 8 9 16 19 27 26 26 29 25 25 25 30 35 35 35 36 36 34 31 31 30 28 28 29 28 29 24 20 21 24 25 24 24 24 25 27 26 25 27 27 27 30 30 30 33 31 31 28 30 29 31 36
10 10 8 10 15 22 23 26 25 27 27 28 29 29 34 36 36 35 36 35 36 34 33 33 33 30 27 23 20 23 24 25 23 23 25 25 25 25 26 27 25 27 27 28 29 27 27 27 25 27 27 27 26 29
7 7 9 11 14 19 22 24 29 27 28 29 30 30 31 36 38 40 40 38 35 36 35 33 28 25 22 22 23 23 23 25 25 24 22 24 27 27 26 26 25 27 29 30 29 27 28 27 27 26 24 23 25 25
11 12 13 16 19 20 20 24 28 29 30 31 32 31 33 34 37 39 39 36 35 32 31 28 27 27 27 28 28 28 27 27 24 23 24 23 26 27 28 29 31 30 30 29 28 26 25 24 24 25 24 23 22 22
13 13 17 16 18 21 23 28 27 29 28 30 30 31 33 32 33 38 36 36 33 29 28 28 29 30 29 27 28 31 30 30 31 29 28 28 27 28 30 30 30 30 30 29 27 26 25 25 23 23 23 23 23 24
13 15 19 19 20 22 26 30 29 29 28 30 32 29 29 35 38 35 36 33 30 28 29 30 32 34 31 32 34 33 33 32 30 30 29 29 29 30 30 31 29 28 29 28 28 28 26 23 24 24 24 24 25 25
14 17 19 19 20 25 31 32 30 30 29 29 30 30 30 34 39 38 34 31 28 32 32 32 35 32 34 34 33 34 33 33 33 32 31 30 29 29 31 30 31 29 27 27 25 25 26 26 24 25 24 24 24 24
17 19 20 23 26 30 32 34 32 32 29 28 27 27 32 38 36 38 34 29 31 31 32 35 36 35 33 32 32 31 33 31 30 30 31 32 32 29 28 29 29 27 27 26 25 26 26 26 26 25 25 25 25 25
19 19 22 23 30 29 30 32 31 29 27 28 27 32 33 34 35 31 31 31 31 31 33 31 31 34 31 28 27 27 28 32 30 29 31 33 31 29 29 27 28 28 32 31 29 28 27 26 26 26 26 25 23 24
20 21 24 28 28 30 32 31 29 28 28 26 29 32 30 28 30 29 31 31 29 33 34 32 30 27 26 27 28 30 31 30 29 28 30 32 33 35 31 29 29 30 33 32 31 29 27 27 26 27 27 27 28 27
21 26 26 29 31 28 29 30 29 27 25 25 28 29 27 25 24 27 28 29 32 32 32 31 27 26 26 26 27 29 31 32 30 30 31 30 33 35 35 35 33 23 31 30 29 29 29 29 30 30 30 31 31 32
25 27 25 28 28 26 25 26 25 23 23 25 24 24 23 22 26 27 28 28 28 29 28 26 26 27 28 29 29 30 30 28 27 27 28 29 30 29 34 34 34 34 34 33 24 25 29 30 31 32 33 32 32 35
28 24 27 27 27 27 25 24 23 26 25 23 23 24 24 25 27 26 26 27 27 27 26 25 25 27 27 27 28 28 31 31 30 27 27 28 27 33 34 34 34 35 35 34 29 27 20 27 26 31 31 31 31 31
25 24 25 24 25 30 30 29 28 27 26 27 28 24 24 26 28 29 30 31 30 28 28 27 28 29 27 27 27 27 26 31 32 33 33 33 33 35 34 33 34 37 37 34 32 31 30 31 32 32 31 30 31 30
26 24 24 27 30 32 30 27 27 26 28 26 27 27 27 26 25 29 32 31 28 28 29 29 29 29 30 31 31 31 28 30 30 31 31 31 34 35 34 34 37 36 33 31 31 30 30 31 30 30 30 30 31 31
27 26 27 29 31 30 30 27 26 28 27 27 28 27 27 26 26 29 31 31 32 32 32 32 32 32 32 31 31 31 30 32 30 23 25 26 27 29 35 36 35 33 31 30 30 29 29 29 29 30 30 30 30 30